WA6MEM Weather Reports


Display with metric or nautical units.
time (UTC)temp
F
wind
direction
speed
MPH
gust
MPH
rain 1hr
in
rain 24hr
in
rain mn
in
humidity
%
barometer
mb
20260505053026 53 184 1.0 0.0 0.00 0.00 0.00 94 1013.4
20260505052526 53 271 1.0 0.0 0.00 0.00 0.00 94 1013.4
20260505052027 53 292 1.0 0.0 0.00 0.00 0.00 94 1013.4
20260505051529 53 202 1.0 0.0 0.00 0.00 0.00 94 1013.4
20260505051029 53 205 1.0 0.0 0.00 0.00 0.00 94 1013.5
20260505050527 53 227 1.0 0.0 0.00 0.00 0.00 94 1013.5
20260505041525 52 201 1.0 0.0 0.00 0.00 0.00 94 1013.6
20260505041025 52 212 1.0 0.0 0.00 0.00 0.00 94 1013.7
20260505040525 52 175 1.0 0.0 0.00 0.00 0.00 94 1013.7
20260505040025 52 165 1.0 0.0 0.00 0.00 0.00 94 1013.7
20260505035523 52 174 1.0 0.0 0.00 0.00 0.00 94 1013.6
20260505035023 52 195 1.0 0.0 0.00 0.00 0.00 94 1013.6
20260505034523 52 196 2.0 0.0 0.00 0.00 0.00 94 1013.6
20260505034024 52 165 1.0 0.0 0.00 0.00 0.00 94 1013.6
20260505033526 52 192 1.0 0.0 0.00 0.00 0.00 94 1013.6
20260505033033 52 151 1.0 0.0 0.00 0.00 0.00 94 1013.6
20260505032524 52 201 2.0 0.0 0.00 0.00 0.00 94 1013.5
20260505032024 52 194 2.0 0.0 0.00 0.00 0.00 94 1013.5
20260505031523 52 178 3.0 0.0 0.00 0.00 0.00 94 1013.5
20260505031023 53 213 3.0 0.0 0.00 0.00 0.00 94 1013.3
20260505030523 53 193 3.0 0.0 0.00 0.00 0.00 94 1013.3
20260505030023 53 176 3.0 0.0 0.00 0.00 0.00 94 1013.3
20260505025527 53 184 3.0 0.0 0.00 0.00 0.00 93 1013.4
20260505025021 53 157 3.0 0.0 0.00 0.00 0.00 93 1013.4
20260505024546 53 176 4.0 0.0 0.00 0.00 0.00 93 1013.4
20260505024021 53 203 4.0 0.0 0.00 0.00 0.00 93 1013.4
20260505023521 53 219 4.0 0.0 0.00 0.00 0.00 93 1013.4
20260505023023 53 185 4.0 0.0 0.00 0.00 0.00 93 1013.4
20260505022522 53 196 4.0 0.0 0.00 0.00 0.00 93 1013.4
20260505022021 53 151 4.0 0.0 0.00 0.00 0.00 92 1013.4
20260505021541 54 205 5.0 0.0 0.00 0.00 0.00 92 1013.4
20260505021020 54 161 5.0 0.0 0.00 0.00 0.00 91 1013.5
20260505020521 54 185 4.0 0.0 0.00 0.00 0.00 91 1013.5
20260505020021 54 166 4.0 0.0 0.00 0.00 0.00 90 1013.5
20260505015523 54 167 4.0 0.0 0.00 0.00 0.00 90 1013.4
20260505015020 55 150 4.0 0.0 0.00 0.00 0.00 89 1013.4
20260505014525 55 180 4.0 0.0 0.00 0.00 0.00 88 1013.4
20260505014022 55 192 3.0 0.0 0.00 0.00 0.00 88 1013.3
20260505013519 55 199 3.0 0.0 0.00 0.00 0.00 87 1013.3
20260505013019 56 175 3.0 0.0 0.00 0.00 0.00 86 1013.3
20260505012522 56 162 3.0 0.0 0.00 0.00 0.00 85 1013.3
20260505012019 56 181 4.0 0.0 0.00 0.00 0.00 83 1013.3
20260505011526 57 214 4.0 0.0 0.00 0.00 0.00 82 1013.3
20260505011018 57 165 4.0 0.0 0.00 0.00 0.00 80 1013.3
20260505010518 58 228 3.0 0.0 0.00 0.00 0.00 79 1013.3
20260505010019 58 163 3.0 0.0 0.00 0.00 0.00 79 1013.3
20260505005518 58 190 4.0 0.0 0.00 0.00 0.00 79 1013.4
20260505005018 58 189 3.0 0.0 0.00 0.00 0.00 80 1013.4
20260505004529 58 162 3.0 0.0 0.00 0.00 0.00 80 1013.4
20260505004017 58 167 3.0 0.0 0.00 0.00 0.00 80 1013.5
20260505003517 57 192 4.0 0.0 0.00 0.00 0.00 78 1013.5
20260505003017 58 144 4.0 0.0 0.00 0.00 0.00 77 1013.5
20260505002517 58 207 4.0 0.0 0.00 0.00 0.00 78 1013.5
20260505002017 58 195 4.0 0.0 0.00 0.00 0.00 79 1013.5
20260505001517 58 207 4.0 0.0 0.00 0.00 0.00 80 1013.5
20260505001018 58 186 5.0 0.0 0.00 0.00 0.00 82 1013.5
20260505000519 57 169 4.0 0.0 0.00 0.00 0.00 82 1013.5
20260505000019 57 200 4.0 0.0 0.00 0.00 0.00 80 1013.5
20260504235516 57 213 5.0 0.0 0.00 0.00 0.00 81 1013.5
20260504235019 57 173 5.0 0.0 0.00 0.00 0.00 82 1013.5
20260504234518 57 174 5.0 0.0 0.00 0.00 0.00 83 1013.5
20260504234017 57 165 5.0 0.0 0.00 0.00 0.00 81 1013.4
20260504233516 58 200 6.0 0.0 0.00 0.00 0.00 78 1013.4
20260504233016 58 140 6.0 0.0 0.00 0.00 0.00 78 1013.4
20260504232516 58 196 6.0 0.0 0.00 0.00 0.00 79 1013.1
20260504232015 59 177 6.0 0.0 0.00 0.00 0.00 76 1013.1
20260504231515 60 136 5.0 0.0 0.00 0.00 0.00 75 1013.1
20260504231017 60 254 5.0 0.0 0.00 0.00 0.00 77 1013.1
20260504230515 60 161 6.0 0.0 0.00 0.00 0.00 76 1013.1
20260504230015 60 188 6.0 0.0 0.00 0.00 0.00 75 1013.1
20260504225517 61 184 6.0 0.0 0.00 0.00 0.00 76 1013.3
20260504225015 60 230 5.0 0.0 0.00 0.00 0.00 78 1013.3
20260504224513 60 175 5.0 0.0 0.00 0.00 0.00 78 1013.3
20260504224014 60 195 7.0 0.0 0.00 0.00 0.00 79 1013.5
20260504223514 60 194 6.0 0.0 0.00 0.00 0.00 79 1013.5
20260504223014 60 175 6.0 0.0 0.00 0.00 0.00 81 1013.5
20260504222514 60 179 6.0 0.0 0.00 0.00 0.00 80 1013.8
20260504222014 60 147 7.0 0.0 0.00 0.00 0.00 81 1013.8
20260504221513 60 234 6.0 0.0 0.00 0.00 0.00 80 1013.8
20260504221013 60 168 5.0 0.0 0.00 0.00 0.00 80 1014.0
20260504220517 60 360 6.0 0.0 0.00 0.00 0.00 79 1014.0
20260504220018 60 236 7.0 0.0 0.00 0.00 0.00 82 1014.0
20260504215512 59 279 6.0 0.0 0.00 0.00 0.00 81 1014.3
20260504215013 59 171 5.0 0.0 0.00 0.00 0.00 82 1014.3
20260504214512 59 233 5.0 0.0 0.00 0.00 0.00 82 1014.3
20260504214013 59 211 6.0 0.0 0.00 0.00 0.00 84 1014.5
20260504213514 59 201 6.0 0.0 0.00 0.00 0.00 82 1014.5
20260504213012 59 162 6.0 0.0 0.00 0.00 0.00 81 1014.5
20260504212512 59 193 6.0 0.0 0.00 0.00 0.00 81 1014.5
20260504212013 59 167 6.0 0.0 0.00 0.00 0.00 82 1014.5
20260504211511 59 173 6.0 0.0 0.00 0.00 0.00 82 1014.5
20260504211011 60 155 6.0 0.0 0.00 0.00 0.00 82 1014.5
20260504210515 60 199 5.0 0.0 0.00 0.00 0.00 81 1014.5
20260504210011 60 203 5.0 0.0 0.00 0.00 0.00 81 1014.5
20260504205510 60 128 5.0 0.0 0.00 0.00 0.00 82 1014.5
20260504205009 60 203 5.0 0.0 0.00 0.00 0.00 81 1014.5
20260504204515 60 183 4.0 0.0 0.00 0.00 0.00 82 1014.5
20260504204009 60 248 5.0 0.0 0.00 0.00 0.00 82 1014.6
20260504203510 60 225 5.0 0.0 0.00 0.00 0.00 80 1014.6
20260504203009 59 360 5.0 0.0 0.00 0.00 0.00 82 1014.6
20260504202509 60 197 6.0 0.0 0.00 0.00 0.00 81 1014.4
20260504202009 60 196 6.0 0.0 0.00 0.00 0.00 80 1014.4
20260504201508 60 186 5.0 0.0 0.00 0.00 0.00 79 1014.4
20260504201009 60 312 5.0 0.0 0.00 0.00 0.00 78 1014.5
20260504200508 61 205 4.0 0.0 0.00 0.00 0.00 78 1014.5
20260504200008 61 150 5.0 0.0 0.00 0.00 0.00 78 1014.5
20260504195507 61 212 5.0 0.0 0.00 0.00 0.00 78 1014.4
20260504195007 61 139 4.0 0.0 0.00 0.00 0.00 78 1014.4
20260504194508 61 200 5.0 0.0 0.00 0.00 0.00 76 1014.4
20260504194007 61 155 5.0 0.0 0.00 0.00 0.00 77 1014.4
20260504193507 61 238 5.0 0.0 0.00 0.00 0.00 71 1014.4
20260504193006 61 202 5.0 0.0 0.00 0.00 0.00 73 1014.4
20260504192506 61 169 5.0 0.0 0.00 0.00 0.00 75 1014.5
20260504192007 62 179 5.0 0.0 0.00 0.00 0.00 71 1014.5
20260504191510 62 140 5.0 0.0 0.00 0.00 0.00 73 1014.5
20260504191004 61 248 5.0 0.0 0.00 0.00 0.00 74 1014.5
20260504190504 61 196 5.0 0.0 0.00 0.00 0.00 72 1014.5
20260504190006 60 187 4.0 0.0 0.00 0.00 0.00 74 1014.5
20260504185500 60 273 4.0 0.0 0.00 0.00 0.00 73 1014.8
20260504185100 60 244 4.0 0.0 0.00 0.00 0.00 75 1014.8
20260504184602 60 227 4.0 0.0 0.00 0.00 0.00 75 1014.8
20260504184100 60 271 5.0 0.0 0.00 0.00 0.00 74 1014.6
20260504183559 60 191 4.0 0.0 0.00 0.00 0.00 76 1014.6
20260504183105 60 226 4.0 0.0 0.00 0.00 0.00 78 1014.6
20260504182558 60 282 4.0 0.0 0.00 0.00 0.00 77 1014.7
20260504182058 59 161 5.0 0.0 0.00 0.00 0.00 79 1014.7
20260504181604 60 234 4.0 0.0 0.00 0.00 0.00 75 1014.7
20260504181058 59 248 4.0 0.0 0.00 0.00 0.00 77 1014.6
20260504180559 59 231 4.0 0.0 0.00 0.00 0.00 78 1014.6
20260504180057 59 204 5.0 0.0 0.00 0.00 0.00 79 1014.6
20260504175556 58 269 6.0 0.0 0.00 0.00 0.00 77 1014.7
20260504175056 59 156 5.0 0.0 0.00 0.00 0.00 78 1014.7
20260504174555 59 192 3.0 0.0 0.00 0.00 0.00 79 1014.7
20260504174055 58 161 4.0 0.0 0.00 0.00 0.00 79 1014.6
20260504173554 58 217 4.0 0.0 0.00 0.00 0.00 79 1014.6
20260504173059 58 316 4.0 0.0 0.00 0.00 0.00 78 1014.6
20260504172554 58 277 4.0 0.0 0.00 0.00 0.00 77 1014.5
20260504172054 58 225 4.0 0.0 0.00 0.00 0.00 77 1014.5
20260504171557 58 210 4.0 0.0 0.00 0.00 0.00 77 1014.5
20260504171054 58 192 3.0 0.0 0.00 0.00 0.00 76 1014.3
20260504170553 58 225 3.0 0.0 0.00 0.00 0.00 75 1014.3
20260504151036 53 277 5.0 0.0 0.00 0.00 0.00 85 1013.7
20260504150536 53 319 6.0 0.0 0.00 0.00 0.00 85 1013.7
20260504141031 51 282 5.0 0.0 0.00 0.00 0.00 91 1013.5
20260504140634 51 311 5.0 0.0 0.00 0.00 0.00 91 1013.5
20260504130527 51 302 4.0 0.0 0.00 0.00 0.00 90 1013.2
20260504110518 52 237 3.0 0.0 0.00 0.00 0.00 90 1013.3
20260504100511 52 307 3.0 0.0 0.00 0.00 0.00 90 1013.0
20260504082003 53 270 1.0 0.0 0.00 0.00 0.00 90 1013.4
20260504081502 53 250 1.0 0.0 0.00 0.00 0.00 90 1013.4
20260504081002 53 250 1.0 0.0 0.00 0.00 0.00 90 1013.9
20260504080502 53 209 0.0 0.0 0.00 0.00 0.00 90 1013.9